CZ-2D DEB, 44612

Orbit data source: Space-Track

CZ-2D DEB, 44612 is space debris in SSO originally from a launch on Mon, 09 Oct 2017 UTC launched from the Jiuquan Satellite Launch Center, China (JSC). Debris objects in space refer to the collection of defunct objects orbiting the Earth. Examples of debris include non-operational satellites, rocket bodies, and fragments generated from explosions, collisions, or faulty payload assembly.

Loading next visibility...
CZ-2D DEB details
Identifier
44612, 2017-060E
Orbit
SSO
Last TLE update17 hours ago
Origin
Flag of CNCASC (CN / PRC)
ManufacturerUnknown
MissionSpacecraft
Bus & MotorUnknown
MassUnknown
Launch date (UTC)
2017-10-09 (7 years ago)
Launch vehicleUnknown
Launch site
Jiuquan Satellite Launch Center, China (JSC)
Object type
Payload
Rocket body
Debris
Shape & HBRUnknown
Radar Cross SectionSmall (<0.1 m²)

Expand to show TLE details & history

TLE from 17 hours ago
0 CZ-2D DEB
1 44612U 17060E   24336.77788081  .00010586  00000-0  11735-2 0  9994
2 44612  97.6012 350.5671 0012326 159.1504 201.0218 14.87399892383064
Epoch: 2024-12-01T18:40Z
Definitive object data (Epoch: 2024-12-01T18:40:08.902Z)
Latitude0.00001°
Longitude-0.58121°
Altitude617.142 km
Speed7.546 km/s
True Right ascension23h 22m 16s
True Declination0° 00' 00"
Sunlit
Object was in daylight at TLE epoch
Visualization TLE readout
Latitude-78.2468°
Longitude140.47198°
Altitude635.948 km
Speed7.538 km/s
Apparent Right ascension22h 09m 39s
Apparent Declination-72° 04' 03"
Sunlit
Object is in daylight
Visualization observer readout
Local Sidereal Time09:45:48
Azimuth183.431° SSW
Elevation-57.711°
Doppler factor1
Orbital elements
Apogee altitude611.686 km
Perigee altitude594.476 km
Semi-major axis6,981.218 km
Eccentricity0.0012326
Inclination97.6012°
RAAN350.5671°
Arg. of periapsis159.1504°
True anomaly200.9712°
Mean anomaly201.0218°
Eccentric anomaly200.9965°
Mean motion3.72089 °/min
BSTAR0.0011735
Orbital period96.75 mins
Loading maneuver chart data...
Loading historical data...
Loading historical data...
Loading historical data...
Loading historical data...
Loading historical data...
Loading historical data...
Loading historical data...
Other satellites on launch #60 in the year 2017 (2017-10-09 UTC)

CZ-2D DEB Visibility forecast

Observer location: undefined°, undefined

Span
Click to sort rows by Start time (UTC) header in descending order
Start Az.
Max El. time (UTC)
Max El. Az.
Max El.
End time (UTC)
End Az.
5 mins2024-12-02 13:00:59.807Z50.793° ENE2024-12-02 13:03:59.807Z98.405° ESE17.353°2024-12-02 13:05:59.807Z130.516° SE
6 mins2024-12-02 14:36:59.807Z344.817° N2024-12-02 14:39:59.807Z278.014° WNW28.898°2024-12-02 14:42:59.807Z226.707° WSW
6 mins2024-12-03 01:28:59.807Z191.509° SSW2024-12-03 01:30:59.807Z238.587° WSW38.177°2024-12-03 01:34:59.807Z336.299° NNW
|